Location: Clair
(33.8067°N, 117.9845°W)
Time: 17:31:36
(UTC+00:00)

SL-4 R/B - Pass Details

Date: 14 February 2026
Orbit: 382 x 515 km, 51.6° (Epoch: 8 March)

Event Time Altitude Azimuth Distance (km) Brightness Sun altitude
Exits shadow 12:41:00 16° 18° (NNE) 1,297 4.1 -24.7°
Maximum altitude 12:41:40 16° 31° (NNE) 1,273 4.2 -24.6°
Drops below altitude 10° 12:44:05 10° 72° (ENE) 1,640 5.4 -24.1°
Sets 12:46:55 0° 94° (E) 2,547 6.9 -23.5°
